Tucson, AZ

8:55 AM MST on February 14, 2016 (GMT -0700)
Davis-Monthan Air Force Base

Weather History for KDMA - March, 2014

Change the Weather History Date:

Saturday, March 15, 2014

  Actual Average Record
Temperature  
Mean Temperature 60 °F -  
Max Temperature 72 °F 72 °F 91 °F (2013)
Min Temperature 48 °F 43 °F 27 °F (1969)
Degree Days  
Heating Degree Days 5    
Growing Degree Days 10 (Base 50)    
Moisture  
Dew Point 21 °F    
Average Humidity 26    
Maximum Humidity 52    
Minimum Humidity 6    
Precipitation  
Precipitation 0.00 in - - ()
Sea Level Pressure  
Sea Level Pressure 30.03 in    
Wind  
Wind Speed 11 mph (WNW)    
Max Wind Speed 33 mph    
Max Gust Speed 44 mph    
Visibility 10 miles    
Events      
Averages and records for this station are not official NWS values.
T = Trace of Precipitation, MM = Missing Value Source: NWS Daily Summary

Daily Weather History Graph

Daily Weather History Graph

Search for Another Location

Airport or City:

Trip Planner

Search our weather history database for the weather conditions in past years. The results will help you decide how hot, cold, wet, or windy it might be!

Date:

Astronomy

Mar. 15, 2014 Rise Set
Actual Time 6:33 AM MST 6:31 PM MST
Civil Twilight 6:09 AM MST 6:56 PM MST
Nautical Twilight 5:40 AM MST 7:24 PM MST
Astronomical Twilight 5:12 AM MST 7:53 PM MST
Moon 5:54 PM MST (3/15) 5:45 AM MST (3/15)
Length of Visible Light 12h 46m
Length of Day
11h 58m
Waxing Gibbous, 99% of the Moon is Illuminated
Mar 15
Waxing Gibbous
Mar 16
Full
Mar 23
Last Quarter
Mar 30
New
Apr 7
First Quarter

Hourly Weather History & Observations

Time (MST) Temp. Dew Point Humidity Pressure Visibility Wind Dir Wind Speed Gust Speed Precip Events Conditions
12:58 AM 51.3 °F 31.1 °F 46% 30.01 in 10.0 mi SSE 8.1 mph - N/A   Clear
1:58 AM 49.6 °F 31.5 °F 50% 30.01 in 10.0 mi South 6.9 mph - N/A   Clear
2:58 AM 48.9 °F 31.3 °F 51% 30.01 in 10.0 mi SE 6.9 mph - N/A   Clear
3:58 AM 48.6 °F 31.1 °F 51% 30.01 in 10.0 mi SSE 5.8 mph - N/A   Clear
4:58 AM 48.6 °F 30.9 °F 51% 30.02 in 10.0 mi South 8.1 mph - N/A   Clear
5:58 AM 48.0 °F 30.9 °F 52% 30.04 in 10.0 mi SSE 8.1 mph - N/A   Clear
6:58 AM 48.2 °F 30.6 °F 51% 30.05 in 10.0 mi South 8.1 mph - N/A   Clear
7:58 AM 53.8 °F 31.1 °F 42% 30.06 in 10.0 mi South 9.2 mph - N/A   Clear
8:58 AM 58.6 °F 31.8 °F 36% 30.07 in 10.0 mi WSW 2.3 mph - N/A   Clear
9:58 AM 62.8 °F 31.6 °F 31% 30.08 in 10.0 mi WNW 5.8 mph - N/A   Clear
10:58 AM 67.8 °F 28.6 °F 23% 30.06 in 10.0 mi WNW 11.5 mph - N/A   Clear
11:58 AM 70.0 °F 28.8 °F 22% 30.04 in 10.0 mi NW 13.8 mph 20.7 mph N/A   Clear
12:55 PM 71.6 °F 26.6 °F 19% 30.09 in 10.0 mi WNW 16.1 mph 24.2 mph N/A   Clear
12:58 PM 72.0 °F 25.7 °F 18% 30.02 in 10.0 mi NW 16.1 mph 24.2 mph N/A   Clear
1:58 PM 72.9 °F 24.3 °F 16% 30.00 in 10.0 mi WNW 15.0 mph 26.5 mph N/A   Clear
2:58 PM 72.9 °F 24.6 °F 17% 29.98 in 10.0 mi NW 23.0 mph 29.9 mph N/A   Clear
3:58 PM 72.3 °F 25.3 °F 17% 29.97 in 10.0 mi NNW 24.2 mph 33.4 mph N/A   Clear
4:58 PM 72.1 °F 17.2 °F 12% 29.96 in 10.0 mi NNW 21.9 mph 32.2 mph N/A   Clear
5:58 PM 70.7 °F 11.8 °F 10% 29.98 in 10.0 mi NW 12.7 mph 24.2 mph N/A   Clear
6:58 PM 68.7 °F 14.5 °F 12% 29.98 in 10.0 mi NW 12.7 mph - N/A   Clear
7:58 PM 66.0 °F 14.2 °F 13% 29.98 in 10.0 mi NW 8.1 mph - N/A   Clear
8:58 PM 64.0 °F 11.8 °F 13% 30.00 in 10.0 mi NNW 11.5 mph - N/A   Clear
9:58 PM 67.1 °F -0.2 °F 7% 30.02 in 10.0 mi North 21.9 mph 34.5 mph N/A   Clear
10:21 PM 68.0 °F -4.0 °F 6% 30.11 in 10.0 mi North 33.4 mph 43.7 mph N/A   Squalls
10:58 PM 66.9 °F -2.2 °F 6% 30.04 in 10.0 mi North 15.0 mph 32.2 mph N/A   Clear
11:58 PM 64.2 °F -1.1 °F 7% 30.07 in 10.0 mi NE 17.3 mph 31.1 mph N/A   Clear